Location: Les Chemineaux
(47.3024°N, 1.5104°E)
Time: 15:47:27
(UTC+00:00)

Cosmos 1470 - Pass Details

Date: 19 May 2025
Orbit: 456 x 466 km, 82.5° (Epoch: 12 June)

Event Time Altitude Azimuth Distance (km) Brightness Sun altitude
Rises 23:02:25 0° 354° (N) 2,517 7.7 -21.8°
Reaches altitude 10° 23:04:33 10° 359° (N) 1,637 6.3 -21.9°
Enters shadow 23:07:50 53° 60° (ENE) 582 2.9 -22.0°
